Regional Weather Roundup
Issued by NWS Wakefield, VA

Home | Current Version | Previous Version | Graphics & Text | Print | Product List | Glossary On
Versions: 1 2 3 4 5 6 7 8 9 10 11 12 13 14 15 16 17 18 19 20 21 22 23 24 25 26
000
ASUS41 KAKQ 260715
RWRAKQ

REGIONAL WEATHER ROUNDUP
NATIONAL WEATHER SERVICE WAKEFIELD VA
300 AM EDT THU MAY 26 2016

Note: "fair" indicates few or no clouds below 12,000 feet with no
significant weather and/or obstructions to visibility. * = Denotes
station may not report precipitation (e.g., rain,snow,etc.),
thunder or fog.

VAZ042-051-052>054-056-260800-
NORTHERN VIRGINIA

CITY           SKY/WX    TMP DP  RH WIND       PRES   REMARKS
WASH NATIONAL  FAIR      64  61  90 S6        30.11S
DULLES         FAIR      63  56  78 CALM      30.10F
FORT BELVOIR   FAIR      58  56  95 CALM      30.10F FOG
QUANTICO       FAIR      62  60  93 NW5       30.11F
FREDERICKSBRG* NOT AVBL
STAFFORD*      FAIR      55  54  95 CALM      30.15S
WARRENTON      FAIR      57  53  85 CALM      30.10F
CULPEPER*      FAIR      58  58 100 CALM      30.12S
MANASSAS*      FAIR      57  57 100 CALM      30.10F
LEESBURG*      FAIR      61  61 100 CALM      30.11S
WINCHESTER     FAIR      59  55  88 CALM      30.11S
FRONT ROYAL*   FAIR      59  55  88 CALM      30.11S
LURAY*         FAIR      57  57 100 CALM      30.13S
$$

VAZ048-049-060>072-079>083-260800-
CENTRAL AND SOUTH CENTRAL VIRGINIA

CITY           SKY/WX    TMP DP  RH WIND       PRES   REMARKS
RICHMOND       FAIR      61  58  90 CALM      30.12F
CHESTERFIELD*  FAIR      61  48  63 CALM      30.13F
PETERSBURG*    FAIR      59  59 100 CALM      30.13S
HANOVER        FAIR      59  56  89 CALM      30.13F
TAPPAHANNOCK*  FAIR      59  59 100 CALM      30.12F
QUINTON*       FAIR      59  59  99 MISG      30.12F
CHARLOTTSVILLE FAIR      62  57  83 CALM      30.11F
GORDONSVILLE*  FAIR      59  58  97 SW3       30.11S
ORANGE*        FAIR      61  61 100 CALM      30.13S
LOUISA*          N/A    N/A N/A N/A MISG      30.11S
BUMPASS*       FAIR      59  58  94 CALM      30.11F
FARMVILLE*     FAIR      60  60 100 CALM      30.11S
CREWE*         FAIR      57  57 100 CALM      30.12F
FORT PICKETT*  NOT AVBL
CHASE CITY*    FAIR      61  59  94 CALM      30.14R
CLARKSVILLE*   FAIR      63  61  94 S3        30.13S
SOUTH HILL*    FAIR      59  58  96 S3        30.19F
LAWRENCEVILLE* FAIR      61  60  94 CALM      30.13F
EMPORIA*       FAIR      61  59  94 CALM      30.15F
$$

VAZ088>098-260800-
SOUTHEAST VIRGINIA

CITY           SKY/WX    TMP DP  RH WIND       PRES   REMARKS
NORFOLK        FAIR      68  59  73 SW7       30.14F
VIRGINIA BEACH FAIR      69  58  67 SW6       30.14S
NORFOLK NAVAL  FAIR      70  60  70 SW8       30.15F
WEST POINT*    FAIR      60  59  96 CALM      30.14S
SALUDA*        FAIR      65  62  93 CALM      30.12F
NEWPORT NEWS   FAIR      68  61  78 SW6       30.14F
LANGLEY AFB    FAIR      70  61  75 S7        30.13F
FORT EUSTIS    FAIR      69  59  71 S2        30.12F
WILLIAMSBURG*  FAIR      66  63  88 S3        30.14F
HR EXEC AP*      N/A     59  55  88 CALM      30.17F
FRANKLIN*      FAIR      64  59  85 S5        30.15S
US460-WAKEFLD  FAIR      66  60  81 VRB5      30.14F
$$

VAZ020-022-025-037-045-260800-
WEST CENTRAL AND SOUTHWEST VIRGINIA

CITY           SKY/WX    TMP DP  RH WIND       PRES   REMARKS
STAUNTON*      FAIR      57  55  94 CALM      30.16S
WAYNESBORO*    FAIR      61  55  80 CALM      30.15S
HOT SPRINGS VA FAIR      62  54  73 SW9       30.24S
LYNCHBURG      FAIR      60  57  89 CALM      30.14F
DANVILLE       FAIR      60  58  92 CALM      30.13F
SOUTH BOSTON*  FAIR      59  58  96 CALM      30.13S
MARTINSVILLE   FAIR      56  56  99 CALM      30.17S
ROANOKE        MOCLDY    66  59  78 CALM      30.16S
BLACKSBURG     FAIR      59  58  96 CALM      30.22S
DUBLIN*        FAIR      60  59  96 CALM      30.20F
MARION*        CLOUDY    64  57  78 CALM      30.23S
HILLSVILLE*    CLOUDY    64  57  76 SW3       30.21S
RICHLANDS*     CLOUDY    67  54  62 SE3       30.20F
WISE*          CLOUDY    68  52  56 S5        30.21S
ABINGDON*      FAIR      65  62  87 CALM      30.18S
$$

MDZ021>025-VAZ099-100-260800-
SOUTHERN MARYLAND AND THE DELMARVA PENINSULA

CITY           SKY/WX    TMP DP  RH WIND       PRES   REMARKS
PATUXENT RIVER CLEAR     64  57  78 CALM      30.11F
BAY BRIDGE APT CLEAR     68  61  77 S3        30.10F
LEONARDTOWN    CLEAR     63  55  77 CALM      30.13S
DOVER          CLOUDY    67  59  75 S8        30.10S
GEORGETOWN     PTCLDY    64  56  75 CALM      30.13S
EASTON         CLOUDY    65  62  87 CALM      30.14F
CAMBRIDGE        N/A     61  59  94 SE3       30.10F
SALISBURY      CLOUDY    59  55  87 E3        30.12S
OCEAN CITY     CLOUDY    60  58  92 CALM      30.12F
WALLOPS ISLAND FAIR      64  60  87 S5        30.13S
ACCOMACK*      FAIR      66  59  77 SW5       30.13S
$$

NCZ012>017-030>032-260800-
NORTH CENTRAL AND EASTERN NORTH CAROLINA

CITY           SKY/WX    TMP DP  RH WIND       PRES   REMARKS
ROANOKE RAPIDS FAIR      63  61  94 S3        30.14F
RALEIGH        MOCLDY    68  61  78 SW7       30.15S
ELIZABETH CITY CLEAR     67  60  78 SW8       30.16F
AHOSKIE*       NOT AVBL
EDENTON*       CLEAR    N/A N/A N/A S8        30.17F
CURRITUCK*     PTCLDY    69  60  73 S3        30.17F
KILL DEVIL HLS PTCLDY    69  62  78 S3        30.17S
MANTEO         NOT AVBL
CAPE HATTERAS  CLEAR     70  66  87 SW5       30.20S
TARBORO*       FAIR      68  61  79 CALM      30.16F HAZE
GOLDSBORO      PTCLDY    69  67  94 S6        30.15F
WASHINGTON     PTCLDY    66  61  83 S5        30.17F
GREENVILLE     PTCLDY    68  61  77 SW6       30.17F
NEW BERN       PTCLDY    67  64  90 S5        30.19F
WILMINGTON     CLEAR     69  66  90 S5        30.18F
$$

VAZ048-260800-
ELSEWHERE

CITY           SKY/WX    TMP DP  RH WIND       PRES   REMARKS
HARRISBURG PA  CLOUDY    61  54  77 E3        30.09S
BALTIMORE      MOCLDY    61  56  83 W3        30.09F
ANNAPOLIS      CLEAR     63  60  90 CALM      30.10S
ANDREWS AFB    FAIR      61  57  84 S5        30.10F
PHILADELPHIA   CLOUDY    65  56  72 W6        30.11R
HENDERSON NC   CLEAR     61  56  84 SW3       30.14F
GREENSBORO     PTCLDY    66  59  78 SW3       30.14F
ROCKY MOUNT    CLEAR     67  61  81 S6        30.15F
$$

VAZ100-260800-
MARINE

STATION/POSITION TIME  TEMP    WIND        PRES    WAVE   SWELL
                       AIR SEA DIR/SP/G            HT/PER HT/PER
                 (UTC) (F)     (DEG/KT/KT) (MB)    (FT/S) (FT/S)
BRANDYWINE LGT   0600   68     220/ 13/ 14 1019.6F
CAPE MAY NJ      0600   67 66  210/  6/  9 1019.4S
LEWES DE         0600   70 62  220/  6/ 10 1019.7S
15NM E FENWICK I 0650   62 57              1020.0F   2/ 9
OCEAN-CITY-INLET 0600   62 60  220/  5/  5 1020.6S
WACHAPREAGUE VA  0600   69 71  230/  3/  4 1020.0F
THOMAS POINT MD  0700   66 64  190/  6/  7 1020.6F
GOOSES REEF MD   0700   67 65  180/  6/  6 1020.4F   1/ 2
COVE POINT MD    0600   71     180/  4/  5 1020.3F
SOLOMONS ISLAND  0600   64 64  350/  2/  2   N/A
BISHOPS HEAD MD  0600   69 72  180/  7/  9 1020.0F
PINEY POINT MD   0600          140/  5/  5   N/A
POTOMAC MD       0700   69 68  210/  4/  4 1018.7F   0
CAMBRIDGE MD     0600   68 64  190/  4/  5 1019.0F
LEWISETTA VA     0600   69 70  230/  4/  5 1019.6F
RAPPAHANNOCK LGT 0600          190/ 12/ 13 1020.9S
STINGRAY PT      0600   69 66  190/  6/ 10 1020.5F   0
YORK RVR RNG VA  0600   71     220/ 12/ 13 1019.9S
YORKTOWN VA      0600   71 68  200/ 10/ 12 1020.2S
JAMESTOWN VA     0700   69 69  210/  8/ 10   N/A
DOMINION TERM VA 0600   71     230/  9/ 10 1020.8S
KIPTOPEKE VA     0600      67  220/ 10/ 11   N/A
CHES BAY BRIDGE  0600   72 62  200/ 15/ 16 1020.6F
CAPE HENRY VA    0600   72     200/  9/ 13   N/A
CHESAPEAKE LGHT  0600   70     230/ 16/ 16 1021.4S
WILLOUBY STN VA  0600   72     210/ 12/ 15 1021.7F
CAPE HENRY BUOY  0612      62                N/A     2/ 8
1ST LANDING BUOY 0700   69 64  210/  8/ 10 1020.6F   1/ 3
CAPE CHARLES BUO 0626      62                N/A     2/ 8   2/ 8
OFFSHORE WE BUOY 0621      62                N/A     2/ 9   2/ 9
64NM E OF VA BCH 0650   63 58  220/ 10/ 12 1021.2F   3/ 9   2/ 9
DUCK PIER NC     0600   71 60  190/ 11/ 14 1021.2S
44100 DUCK FRF   0624      65                N/A     2/ 9
44056 DUCK FRF   0611      62                N/A     2/ 9
OREGON INLET NC  0600   72 74  210/ 12/ 13 1022.2S
HATTERAS NC      0600   70 72  210/  6/  8 1022.2F
DIAMOND SHLS NC  0650   71 69  240/  6/  6 1022.9S   2/ 7   2/ 7
CAPE LOOKOUT NC  C1F1C2F2C3F3C4F4C5F5C6F6C7F7C8M1C9!



USA.gov is the U.S. government's official web portal to all federal, state and local government web resources and services.